Regional Weather Roundup
Issued by NWS Northern Indiana

Home | Current Version | Previous Version | Text Only | Print | Product List | Glossary Off
Versions: 1 2 3 4 5 6 7 8 9 10 11 12 13 14 15 16 17 18 19 20 21 22 23 24 25 26 27 28 29 30 31 32 33 34 35 36 37 38 39 40 41 42 43 44 45 46 47 48 49 50

000
ASUS43 KIWX 022300
RWRIWX

KIWX WEATHER ROUNDUP
NATIONAL WEATHER SERVICE NORTHERN INDIANA
700 PM EDT SUN AUG 02 2015

NOTE: "FAIR" INDICATES FEW OR NO CLOUDS BELOW 12,000 FEET WITH NO
SIGNIFICANT WEATHER AND/OR OBSTRUCTIONS TO VISIBILITY.

* THESE STATIONS ARE NOT UNDER NWS QUALITY CONTROL. THEY ALSO MAY NOT
  REPORT WEATHER SUCH AS PRECIPITATION OR FOG.

INZ001>027-030000-
NORTHERN INDIANA

CITY           SKY/WX    TMP DP  RH WIND       PRES   REMARKS
GARY*          MOSUNNY   90  70  51 SW12G37   29.70F HX  95
KNOX*          PTSUNNY   88  63  42 SW18G26   29.73S
SOUTH BEND     CLOUDY    89  64  43 SW20      29.72S
GOSHEN         CLOUDY    85  66  53 SW14G24   29.75R
MONTICELLO*    MOSUNNY   87  68  53 SW17G26   29.78F
WARSAW*        PTSUNNY   86  63  45 SW9G18    29.77S
ANGOLA*        SUNNY     86  81  84 SW15      29.75S HX 102
FORT WAYNE     PTSUNNY   86  66  51 SW17G24   29.79F

$$
INZ028>050-030000-
CENTRAL INDIANA

CITY           SKY/WX    TMP DP  RH WIND       PRES   REMARKS
LAFAYETTE      SUNNY     86  69  56 SW12G17   29.79F
KOKOMO*        MOSUNNY   88  66  48 SW17G25   29.81F
MUNCIE*        SUNNY     84  66  54 S14G20    29.84F
INDIANAPOLIS   MOSUNNY   85  67  54 SW13      29.85F

$$
MIZ043>046-050>051-056>058-064>065-071>073-077>080-030000-
SOUTHWEST LOWER MICHIGAN

CITY           SKY/WX    TMP DP  RH WIND       PRES   REMARKS
BATTLE CREEK   SUNNY     89  63  41 SW32G41   29.68F
BENTON HARBOR  MOSUNNY   88  68  51 SW16G39   29.67F
COLDWATER*     SUNNY     85  60  43 SW20G28   29.72F
HILLSDALE*     SUNNY     87  64  47 SW14G23   29.74F
HOLLAND        SUNNY     87  67  51 SW29G44   29.62F
GRAND RAPIDS   PTSUNNY   88  62  41 SW21G32   29.61F
KALAMAZOO      SUNNY     89  63  41 SW23G32   29.68F
STURGIS*       MOSUNNY   82  64  54 SW14G22   29.73F
THREE RIVERS*  FAIR      87  60  40 SW15G23   29.71F

$$
OHZ001>008-015>018-024>025-030000-
NORTHWEST OHIO

CITY           SKY/WX    TMP DP  RH WIND       PRES   REMARKS
DEFIANCE       SUNNY     89  61  38 SW18G32   29.76F
FINDLAY        SUNNY     86  65  49 SW16      29.80F
TOLEDO EXPRESS SUNNY     87  60  40 SW16G25   29.75F
TOLEDO METCALF SUNNY     89  61  38 SW23G29   29.75F
LIMA           SUNNY     85  64  49 SW12G24   29.84F

$$
AND FOR LAKE MICHIGAN COASTAL AND OPEN LAKE BUOY OBSERVATIONS

STATION/POSITION TEMP    WIND        PRES    VSBY  WAVE
                 AIR SEA DIR/SP/G                  HT/PER
                 (F)     (DEG/KT/KT) (MB)    (MI)  (FT/S)
CALUMET HARBOR    89     220/ 10/ 17   N/A
MICHIGAN CITY     86     200/ 26/ 33   N/A
BURNS HARBOR      88     220/ 23/ 26 1005.4F
SAINT JOSEPH      81     180/ 16/ 19 1006.1F
4 MI NW BRIDGMAN  78 74  240/ 16/ 17   N/A           3/ 4
MICHIGAN CITY     83 74  230/ 17/ 25   N/A           3/ 4

$$
&&



USA.gov is the U.S. government's official web portal to all federal, state and local government web resources and services.